Flag for Finland Weather past 2 weeks in Helsinki, Finland

Now
34 °F

Partly sunny.


Feels Like: 25 °F
Forecast: 31 / 35 °F
Wind: 12 mph from South

Location: Helsinki Malmi Airport

Current Time: Jan 27, 2015 at 1:22:40 PM

Latest Report: Jan 27, 2015 at 12:50 PM


Visibility: N/A

Pressure: 29.77 "Hg

Humidity: 65%

Dew point: 23 °F

Location of HelsinkiLocation

Historic Weather in Helsinki — Graph

°F

Helsinki temperature yesterday

Maximum temperature yesterday: 34 °F (at 4:20 AM)
Minimum temperature yesterday: 32 °F (at 12:20 AM)
Average temperature yesterday: 33 °F

Past Weeks' High & Low Weather Summary

 TemperatureHumidityPressure
High39 °F (Jan 16, 1:20 PM)100% (Jan 12, 11:50 PM)30.42 "Hg (Jan 12, 11:50 PM)
Low3 °F (Jan 12, 6:50 PM)69% (Jan 20, 3:50 PM)28.88 "Hg (Jan 13, 3:20 AM)
Average30 °F86%29.84 "Hg
* Reported Jan 12 12:20 PM — Jan 27 12:20 PM, Helsinki, Weather by CustomWeather, © 2014

Note: Actual official high and low records may vary slightly from our data, if they occured in-between our weather recording intervals... More about our weather records

Advertising

Helsinki weather history for previous 24 hours

 ConditionsComfort  
Time TempWeatherWind HumidityBarometerVisibility
12:20 PM
Jan 27
32 °FPartly sunny.9 mph75%29.77 "HgN/A
11:50 AM32 °FPartly sunny.10 mph75%29.77 "HgN/A
11:20 AM32 °FPartly sunny.9 mph75%29.80 "HgN/A
10:50 AM32 °FPartly sunny.10 mph75%29.80 "HgN/A
10:20 AM32 °FPartly sunny.12 mph75%29.80 "HgN/A
9:50 AM32 °FPartly sunny.10 mph69%29.80 "HgN/A
9:20 AM32 °FPartly sunny.12 mph75%29.80 "HgN/A
8:50 AM32 °FPartly sunny.13 mph75%29.80 "HgN/A
8:20 AM32 °FPassing clouds.12 mph75%29.80 "HgN/A
7:50 AM32 °FOvercast.10 mph80%29.80 "HgN/A
7:20 AM32 °FOvercast.14 mph80%29.80 "HgN/A
6:50 AM32 °FOvercast.10 mph87%29.80 "HgN/A
6:20 AM32 °FOvercast.9 mph87%29.80 "HgN/A
5:50 AM32 °FOvercast.12 mph87%29.80 "HgN/A
5:20 AM32 °FOvercast.12 mph87%29.80 "HgN/A
4:50 AM32 °FOvercast.10 mph87%29.80 "HgN/A
4:20 AM32 °FOvercast.8 mph87%29.83 "HgN/A
3:50 AM32 °FOvercast.10 mph87%29.83 "HgN/A
3:20 AM32 °FOvercast.7 mph87%29.83 "HgN/A
2:50 AM32 °FOvercast.7 mph87%29.83 "HgN/A
2:20 AM32 °FOvercast.9 mph87%29.83 "HgN/A
1:50 AM34 °FOvercast.9 mph75%29.83 "HgN/A
1:20 AM34 °FOvercast.9 mph75%29.86 "HgN/A
12:50 AM34 °FOvercast.10 mph75%29.86 "HgN/A
12:20 AM34 °FOvercast.8 mph81%29.86 "HgN/A
11:50 PM
Jan 26
34 °FOvercast.9 mph75%29.86 "HgN/A
11:20 PM34 °FOvercast.9 mph75%29.86 "HgN/A
10:50 PM34 °FOvercast.9 mph75%29.89 "HgN/A
10:20 PM34 °FOvercast.9 mph70%29.89 "HgN/A
9:50 PM34 °FOvercast.9 mph75%29.89 "HgN/A
9:20 PM34 °FOvercast.10 mph81%29.89 "HgN/A
8:50 PM34 °FPassing clouds.12 mph75%29.89 "HgN/A
8:20 PM34 °FPassing clouds.10 mph75%29.92 "HgN/A
7:50 PM34 °FPassing clouds.9 mph81%29.92 "HgN/A
7:20 PM34 °FPassing clouds.9 mph75%29.92 "HgN/A
6:50 PM34 °FPassing clouds.10 mph75%29.92 "HgN/A
6:20 PM34 °FPassing clouds.10 mph75%29.95 "HgN/A
5:50 PM34 °FPassing clouds.12 mph75%29.95 "HgN/A
5:20 PM34 °FPassing clouds.9 mph75%29.95 "HgN/A
4:50 PM34 °FPassing clouds.10 mph75%29.95 "HgN/A
4:20 PM34 °FPassing clouds.10 mph75%29.95 "HgN/A
3:50 PM34 °FBroken clouds.10 mph81%29.95 "HgN/A
3:20 PM34 °FPartly sunny.10 mph81%29.98 "HgN/A
2:50 PM34 °FPartly sunny.9 mph81%29.98 "HgN/A
2:20 PM34 °FPartly sunny.10 mph87%29.98 "HgN/A
1:50 PM34 °FPartly sunny.10 mph81%29.98 "HgN/A
1:20 PM34 °FPartly sunny.8 mph81%30.01 "HgN/A
Weather by CustomWeather, © 2014

See weather overviewHow to use our weather pages